[[[{"header":{"parameterUnit":"kt","parameterCategory":2,"dx":1,"dy":1,"la1":30.253999710083008,"la2":30.299108505249023,"lo1":-89.0895004272461,"lo2":-89.04439544677734,"nx":28,"ny":28,"refTime":"2022-10-09T21:00:00:Z","depth":0,"parameterNumber":1,"parameterNumberName":"U-component_of_WINDS"},"data":[-6.8142,-6.817,-6.8147,-6.8169,-6.8151,-6.8162,-6.8159,-6.8152,-6.814,-6.8151,-6.8154,-6.8133,-6.8112,-6.8109,-6.8111,-6.8101,-6.8105,-6.8133,-6.8117,-6.801,-6.7994,-6.7979,-6.7971,-6.8134,-6.8134,-6.8232,-6.8233,-6.8234,-6.807,-6.8053,-6.8057,-6.8045,-6.8048,-6.8007,-6.7994,-6.8,-6.8011,-6.7996,-6.7997,-6.8004,-6.8007,-6.7975,-6.7974,-6.7988,-6.7968,-6.7989,-6.7989,-6.7987,-6.7871,-6.7863,-6.8005,-6.8005,-6.8005,-6.8005,-6.8005,-6.8005,-6.7933,-6.7951,-6.7929,-6.7933,-6.792,-6.7912,-6.7925,-6.7897,-6.7901,-6.7896,-6.7865,-6.7877,-6.7857,-6.7843,-6.7832,-6.7841,-6.7813,-6.7828,-6.7832,-6.7837,-6.7848,-6.7714,-6.7839,-6.7838,-6.7838,-6.7837,-6.7837,0,-6.7826,-6.7805,-6.7806,-6.7801,-6.7801,-6.7795,-6.7784,-6.7791,-6.7736,-6.7741,-6.7746,-6.7745,-6.7743,-6.7746,-6.7738,-6.7723,-6.768,-6.7672,-6.7683,-6.7699,-6.7716,-6.771,-6.7525,-6.7669,-6.7667,-6.7666,-6.7665,-6.7665,-6.7688,-6.771,-6.7674,-6.7679,-6.7666,-6.7673,-6.7673,-6.7622,-6.7623,-6.7603,-6.7621,-6.7622,-6.762,-6.7633,-6.76,-6.7598,-6.7577,-6.7635,-6.7577,-6.7592,-6.7581,-6.7581,-6.7584,-6.7648,-6.765,-6.7652,-6.7653,0,-6.7614,-6.7572,-6.7598,-6.7559,-6.755,-6.7576,-6.7543,-6.7557,-6.7528,-6.7545,-6.7545,-6.75,-6.7505,-6.7462,-6.7459,-6.7437,-6.7483,-6.7461,-6.749,-6.7484,-6.7533,-6.753,-6.7695,-6.7715,-6.7544,-6.7545,-6.7547,0,-6.748,-6.7511,-6.7447,-6.7464,-6.7497,-6.7443,-6.7478,-6.7455,-6.7435,-6.7448,-6.7391,-6.7404,-6.7346,-6.7353,-6.7319,-6.7348,-6.7347,-6.7332,-6.7323,-6.7338,-6.734,-6.7339,-6.7332,-6.7298,-6.7298,-6.7297,-6.7296,0,-6.7369,-6.7368,-6.7396,-6.7389,-6.7349,-6.7364,-6.7348,-6.7324,-6.7323,-6.7315,-6.7314,-6.7309,-6.7306,-6.7303,-6.726,-6.7222,-6.7293,-6.7232,-6.7278,-6.728,-6.7297,-6.7296,-6.7453,-6.7295,-6.7295,-6.7295,-6.7294,0,-6.7254,-6.7246,-6.7291,-6.7257,-6.7259,-6.7276,-6.7267,-6.7271,-6.725,-6.723,-6.7223,-6.7179,-6.7199,-6.7142,-6.7169,-6.7132,-6.7133,-6.712,-6.7122,-6.7122,-6.706,-6.7156,-6.7308,-6.7323,-6.7122,-6.7121,-6.7119,0,-6.714,-6.7172,-6.7126,-6.7169,-6.7178,-6.7114,-6.7132,-6.7115,-6.7088,-6.7093,-6.7063,-6.7068,-6.7016,-6.7011,-6.703,-6.7001,-6.7049,-6.6993,-6.7002,-6.7003,-6.7012,-6.7151,-6.7185,-6.728,-6.71,-6.7102,-6.7103,0,-6.7045,-6.6994,-6.7005,-6.6995,-6.6962,-6.6968,-6.6989,-6.6981,-6.6987,-6.6972,-6.6989,-6.6993,-6.6955,-6.6947,-6.691,-6.6932,-6.7015,-6.6888,-6.6886,-6.6914,-6.7085,-6.7119,-6.7135,-6.6985,-6.6988,-6.6989,-6.7088,0,-6.6886,-6.6895,-6.6921,-6.6899,-6.6897,-6.692,-6.6871,-6.6875,-6.684,-6.6811,-6.6834,-6.6806,-6.6798,-6.6802,-6.6768,-6.6831,-6.6814,-6.6772,-6.6713,-6.6804,-6.6836,-6.6849,-6.6671,-6.6669,-6.6667,-6.6666,0,0,-6.6787,-6.6799,-6.6746,-6.6763,-6.6757,-6.6688,-6.6718,-6.6704,-6.6679,-6.6677,-6.6644,-6.6646,-6.6625,-6.6657,-6.6682,-6.6678,-6.6685,-6.6654,-6.6761,-6.6772,-6.6782,-6.6816,-6.683,-6.6663,-6.6662,-6.6662,-6.6661,0,-6.6719,-6.6697,-6.6726,-6.6709,-6.6683,-6.665,-6.6657,-6.6618,-6.66,-6.6621,-6.6563,-6.6571,-6.6572,-6.6558,-6.6551,-6.6649,-6.6606,-6.665,-6.672,-6.6746,-6.6759,-6.677,-6.6807,-6.6821,-6.6657,-6.6657,-6.6657,0,-6.6618,-6.6589,-6.6597,-6.6579,-6.6561,-6.6571,-6.6497,-6.651,-6.6517,-6.6439,-6.646,-6.6438,-6.6413,-6.6449,-6.6463,-6.6434,-6.6537,-6.6494,-6.6503,-6.6504,-6.6526,-6.6542,-6.6556,-6.6371,-6.637,-6.637,0,0,-6.6566,-6.6573,-6.6524,-6.6561,-6.6553,-6.6504,-6.6503,-6.6467,-6.6446,-6.6437,-6.6407,-6.6389,-6.6389,-6.6391,-6.6388,-6.6434,-6.6426,-6.6461,-6.6474,-6.6485,-6.6492,-6.6518,-6.6533,-6.6367,-6.6367,-6.6366,0,0,-6.654,-6.6485,-6.6453,-6.6489,-6.6471,-6.6425,-6.6449,-6.6409,-6.6401,-6.6393,-6.6332,-6.6324,-6.6357,-6.6337,-6.6303,-6.6367,-6.631,-6.6317,-6.6379,-6.6395,-6.6408,-6.6413,-6.6223,0,0,0,0,0,-6.6444,-6.6492,-6.6463,-6.6462,-6.6438,-6.6441,-6.6438,-6.6389,-6.635,-6.6371,-6.6339,-6.6291,-6.6306,-6.6275,-6.6274,-6.6313,-6.6328,-6.6335,-6.6341,-6.6432,-6.6449,-6.6464,0,0,0,0,0,0,-6.6443,-6.6441,-6.6462,-6.6419,-6.6413,-6.6439,-6.6363,-6.6351,-6.6347,-6.6337,-6.6299,-6.629,-6.6248,-6.6272,-6.6272,-6.6309,-6.6223,-6.6331,-6.6337,-6.6342,-6.6438,-6.6452,-6.6465,0,0,0,0,0,-6.6442,-6.644,-6.6415,-6.6418,-6.6413,-6.6359,-6.636,-6.635,-6.6346,-6.6296,-6.6285,-6.6309,-6.6251,-6.6248,-6.6271,-6.6311,-6.6222,-6.6223,-6.6335,-6.6339,-6.6343,-6.6445,0,0,0,0,0,0,-6.6441,-6.6431,-6.6413,-6.6409,-6.6396,-6.6357,-6.6349,-6.6349,-6.6303,-6.6294,-6.6303,-6.6296,-6.6253,-6.625,-6.6248,-6.6314,-6.6222,-6.6222,-6.6222,-6.6338,-6.6342,-6.6345,0,0,0,0,0,0,-6.6431,-6.6428,-6.6411,-6.6385,-6.6378,-6.6355,-6.6348,-6.636,-6.6304,-6.6312,-6.6305,-6.63,-6.6256,-6.6252,-6.6251,-6.6272,-6.6221,-6.6222,-6.6222,-6.6222,-6.6341,-6.6344,0,0,0,0,0,0,-6.6429,-6.6427,-6.6386,-6.6381,-6.6375,-6.6333,-6.6365,-6.6343,-6.6282,-6.6316,-6.6275,-6.6272,-6.626,-6.6257,-6.6253,-6.6275,-6.6273,-6.6221,-6.6222,-6.6222,-6.6222,0,0,0,0,0,0,0,-6.6427,-6.6455,-6.6433,-6.6377,-6.6371,-6.6378,-6.6377,-6.6377,-6.6281,-6.6279,-6.6276,-6.6273,-6.622,-6.622,-6.622,-6.6278,0,0,-6.6221,-6.6222,0,0,0,0,0,0,0,0,-6.6455,-6.6455,-6.6433,-6.6432,-6.6431,-6.6378,-6.6378,-6.6377,-6.6281,-6.6279,-6.6276,-6.6274,-6.622,-6.622,-6.622,0,0,0,0,0,0,0,0,0,0,0,0,0,0,0,-6.6432,-6.6432,0,-6.6378,-6.6378,-6.6377,-6.628,-6.6279,-6.6277,-6.6275,-6.622,-6.622,-6.622,0,0,0,0,0,0,0,0,0,0,0,0,0,0,0,0,0,0,0,0,0,0,0,0,0,0,0,0,0,0,0,0,0,0,0,0,0,0,0,0,0,0,0,0,0,0,0,0,0,0,0,0,0,0,0,0,0,0,0,0,0,0,0,0,0,0,0,0,0]}],[{"header":{"parameterUnit":"kt","parameterCategory":2,"dx":1,"dy":1,"la1":30.253999710083008,"la2":30.299108505249023,"lo1":-89.0895004272461,"lo2":-89.04439544677734,"nx":28,"ny":28,"refTime":"2022-10-09T21:00:00:Z","depth":0,"parameterNumber":2,"parameterNumberName":"V-component_of_WINDS"},"data":[-7.6942,-7.7067,-7.7124,-7.7293,-7.7372,-7.7498,-7.7561,-7.7648,-7.7732,-7.7888,-7.7988,-7.8057,-7.8163,-7.8296,-7.8408,-7.8436,-7.8481,-7.8486,-7.8519,-7.8447,-7.8441,-7.8435,-7.841,-7.8493,-7.8494,-7.8587,-7.8588,-7.8588,-7.689,-7.697,-7.7074,-7.7215,-7.7306,-7.7336,-7.745,-7.7524,-7.7635,-7.7738,-7.7839,-7.7981,-7.81,-7.8206,-7.833,-7.8391,-7.8413,-7.8421,-7.8419,-7.8436,-7.8361,-7.8334,-7.8402,-7.8402,-7.8402,-7.8402,-7.8402,-7.8402,-7.6811,-7.6882,-7.7,-7.7115,-7.72,-7.7293,-7.7372,-7.7455,-7.7558,-7.7693,-7.7739,-7.7866,-7.7979,-7.8155,-7.8227,-7.8329,-7.833,-7.8356,-7.8364,-7.837,-7.8371,-7.8236,-7.8351,-7.8351,-7.8351,-7.8351,-7.8351,0,-7.6771,-7.6813,-7.6917,-7.7038,-7.7124,-7.7222,-7.7322,-7.7372,-7.7479,-7.7559,-7.7681,-7.776,-7.7917,-7.8038,-7.8165,-7.8236,-7.8276,-7.8284,-7.8304,-7.8286,-7.8255,-7.8278,-7.8155,-7.8281,-7.8281,-7.828,-7.828,-7.828,-7.6698,-7.6774,-7.6922,-7.6988,-7.7056,-7.7159,-7.7232,-7.7321,-7.7394,-7.753,-7.7589,-7.771,-7.7812,-7.7996,-7.8091,-7.8208,-7.8229,-7.8272,-7.8247,-7.8227,-7.8236,-7.8232,-7.8242,-7.8276,-7.8277,-7.8277,-7.8277,0,-7.6653,-7.6744,-7.6878,-7.7017,-7.7055,-7.7129,-7.7249,-7.7323,-7.7395,-7.7507,-7.7539,-7.7651,-7.7768,-7.7857,-7.8007,-7.8051,-7.8179,-7.8194,-7.8142,-7.8151,-7.8202,-7.8197,-7.8342,-7.8367,-7.8277,-7.8278,-7.8279,0,-7.6628,-7.6723,-7.6853,-7.6926,-7.7035,-7.7121,-7.7227,-7.7299,-7.7397,-7.7487,-7.7545,-7.7628,-7.7728,-7.7824,-7.7887,-7.8008,-7.8034,-7.8076,-7.8092,-7.8073,-7.8068,-7.8115,-7.8113,-7.8121,-7.812,-7.8119,-7.8119,0,-7.6551,-7.6729,-7.6848,-7.6903,-7.706,-7.7114,-7.7181,-7.7291,-7.7361,-7.7466,-7.7513,-7.7628,-7.7691,-7.778,-7.7861,-7.7841,-7.8008,-7.7998,-7.8051,-7.8049,-7.8085,-7.8083,-7.8186,-7.8118,-7.8117,-7.8117,-7.8117,0,-7.6545,-7.6649,-7.6806,-7.6939,-7.6982,-7.7059,-7.718,-7.7266,-7.7377,-7.7422,-7.7505,-7.7555,-7.7663,-7.7648,-7.7801,-7.7753,-7.7813,-7.7861,-7.7867,-7.7885,-7.7865,-7.7916,-7.8002,-7.8017,-7.7898,-7.7896,-7.7895,0,-7.6434,-7.6615,-7.669,-7.6837,-7.6933,-7.6995,-7.7082,-7.7178,-7.7245,-7.7337,-7.7412,-7.7515,-7.7521,-7.7566,-7.7629,-7.7711,-7.7773,-7.7704,-7.784,-7.7844,-7.7813,-7.7892,-7.7885,-7.7973,-7.7873,-7.7875,-7.7877,0,-7.6359,-7.6547,-7.6567,-7.6636,-7.6775,-7.6855,-7.6954,-7.7075,-7.7133,-7.7232,-7.7319,-7.7464,-7.7477,-7.7549,-7.7601,-7.7662,-7.7733,-7.7667,-7.7671,-7.7679,-7.7867,-7.786,-7.7875,-7.7755,-7.7758,-7.776,-7.7859,0,-7.6338,-7.6438,-7.6496,-7.6639,-7.6714,-7.6809,-7.6903,-7.697,-7.7013,-7.7082,-7.7209,-7.7309,-7.7431,-7.7468,-7.751,-7.7621,-7.7617,-7.7628,-7.7621,-7.767,-7.7706,-7.772,-7.7561,-7.7561,-7.7561,-7.7562,0,0,-7.621,-7.6356,-7.6434,-7.6533,-7.6602,-7.6663,-7.6757,-7.683,-7.6976,-7.7022,-7.7019,-7.7237,-7.7318,-7.7463,-7.7485,-7.7533,-7.7563,-7.754,-7.7645,-7.7654,-7.7662,-7.7698,-7.7711,-7.7562,-7.7562,-7.7562,-7.7562,0,-7.6223,-7.6303,-7.6393,-7.6473,-7.6594,-7.6662,-7.6683,-7.6813,-7.6862,-7.6985,-7.7034,-7.7121,-7.729,-7.7372,-7.7435,-7.7525,-7.7558,-7.7554,-7.7573,-7.7644,-7.7653,-7.7661,-7.7697,-7.7709,-7.7563,-7.7563,-7.7563,0,-7.6169,-7.6265,-7.6317,-7.6473,-7.6552,-7.6648,-7.6664,-7.6762,-7.6835,-7.6895,-7.7017,-7.7084,-7.7198,-7.7321,-7.7379,-7.7377,-7.7548,-7.7509,-7.7509,-7.7519,-7.7592,-7.7602,-7.7611,-7.7493,-7.7493,-7.7492,0,0,-7.6166,-7.6259,-7.6388,-7.6483,-7.6529,-7.6631,-7.669,-7.6739,-7.684,-7.688,-7.6968,-7.7065,-7.7166,-7.7229,-7.7328,-7.7448,-7.748,-7.7496,-7.75,-7.7502,-7.7512,-7.7586,-7.7596,-7.749,-7.749,-7.749,0,0,-7.6165,-7.632,-7.6345,-7.6466,-7.6561,-7.6695,-7.6749,-7.6784,-7.6881,-7.6881,-7.6968,-7.6998,-7.7113,-7.7177,-7.7135,-7.7328,-7.7318,-7.733,-7.7282,-7.7288,-7.7291,-7.7274,-7.7165,0,0,0,0,0,-7.6226,-7.6301,-7.6322,-7.6357,-7.6553,-7.6682,-7.6708,-7.6782,-7.6775,-7.6817,-7.6896,-7.6926,-7.7173,-7.7139,-7.7171,-7.7217,-7.746,-7.7465,-7.747,-7.7437,-7.7442,-7.7446,0,0,0,0,0,0,-7.624,-7.6281,-7.6321,-7.6456,-7.6501,-7.668,-7.6685,-7.6708,-7.6773,-7.6777,-7.691,-7.693,-7.6995,-7.7127,-7.7155,-7.7198,-7.7156,-7.7462,-7.7467,-7.7471,-7.7439,-7.7443,-7.7446,0,0,0,0,0,-7.6251,-7.6285,-7.658,-7.6455,-7.6494,-7.6611,-7.6683,-7.6702,-7.6753,-7.6875,-7.6896,-7.6803,-7.6994,-7.7023,-7.7144,-7.7183,-7.7137,-7.7147,-7.7465,-7.7469,-7.7472,-7.7441,0,0,0,0,0,0,-7.626,-7.6303,-7.6589,-7.6604,-7.6432,-7.6603,-7.6632,-7.6696,-7.6849,-7.6871,-7.6772,-7.6774,-7.6995,-7.7017,-7.7039,-7.7174,-7.7122,-7.7132,-7.7139,-7.7468,-7.747,-7.7473,0,0,0,0,0,0,-7.6286,-7.6315,-7.6597,-7.6564,-7.6575,-7.6594,-7.662,-7.6733,-7.685,-7.6738,-7.6744,-7.6771,-7.6962,-7.7013,-7.703,-7.7203,-7.711,-7.712,-7.7127,-7.7131,-7.747,-7.7472,0,0,0,0,0,0,-7.6299,-7.6325,-7.656,-7.6569,-7.6579,-7.6749,-7.6695,-7.6892,-7.6821,-7.673,-7.6817,-7.6815,-7.6957,-7.6976,-7.7024,-7.7189,-7.7199,-7.711,-7.7117,-7.7122,-7.7125,0,0,0,0,0,0,0,-7.6311,-7.6123,-7.6502,-7.6574,-7.6582,-7.6739,-7.6743,-7.6747,-7.6821,-7.6819,-7.6818,-7.6816,-7.7053,-7.7064,-7.7075,-7.7177,0,0,-7.7109,-7.7114,0,0,0,0,0,0,0,0,-7.6115,-7.6121,-7.6503,-7.6506,-7.6509,-7.674,-7.6743,-7.6747,-7.6821,-7.6819,-7.6818,-7.6817,-7.7056,-7.7065,-7.7074,0,0,0,0,0,0,0,0,0,0,0,0,0,0,0,-7.6503,-7.6506,0,-7.674,-7.6743,-7.6746,-7.682,-7.6819,-7.6818,-7.6817,-7.7058,-7.7066,-7.7073,0,0,0,0,0,0,0,0,0,0,0,0,0,0,0,0,0,0,0,0,0,0,0,0,0,0,0,0,0,0,0,0,0,0,0,0,0,0,0,0,0,0,0,0,0,0,0,0,0,0,0,0,0,0,0,0,0,0,0,0,0,0,0,0,0,0,0,0,0]}]]]